Terug naar catalogus

COSMOS 2251 DEB

ActiefLEO
NORAD 33837·DEBRIS·🇷🇺 Russia

Gelanceerd Jun 16, 1993 vanaf Plesetsk Cosmodrome

Loading…

Volgende Passages (komende 24 uur)

TLE

VersSource: Space-Track

Epoch: Sep 14, 2026, 08:33 UTC

1 33837U 93036CE  26257.35661542  .00000546  00000-0  14374-3 0  9996
2 33837  74.0094 256.4605 0032853  48.7313 311.6669 14.51178218927935

Volg COSMOS 2251 DEB in realtime met AllMySat

Download on the App Store